Zurück zum Katalog

GJZ 01

AktivWissenschaftLEO
NORAD 62290·PAYLOAD·🇨🇳 China

Gestartet Dec 12, 2024 von Jiuquan Satellite Launch Center

Loading…

Nächste Überflüge (nächste 24 Stunden)

TLE

AktuellSource: Space-Track

Epoche: Sep 14, 2026, 15:00 UTC

1 62290U 24238A   26257.62505183 -.00000050  00000-0  71254-4 0  9999
2 62290  59.9155  15.9366 0016507 342.8889  17.1560 13.75232860 87907

Verfolge GJZ 01 in Echtzeit mit AllMySat

Download on the App Store